Estación de San Pedro
Ultimos registro cada 15 minutos 33
| N° | Estación | Fecha / Hora | Temperatura | Humedad | Lluvia | Velocidad | Dirección | Radiación | Presion |
| 33 | San Pedro | 05-05-2026 08:00 | 9,6 | 95,2 | 0 | 0 | 185 | 35,6 | 997,3 |
| 32 | San Pedro | 05-05-2026 07:45 | 9 | 96,1 | 0 | 0 | 261 | 24,4 | 997,8 |
| 31 | San Pedro | 05-05-2026 07:30 | 9,4 | 95,5 | 0 | 0,5 | 194 | 3,1 | 997,6 |
| 30 | San Pedro | 05-05-2026 07:15 | 9,5 | 95,7 | 0 | 0 | 225 | 0,6 | 998,2 |
| 29 | San Pedro | 05-05-2026 07:00 | 8,7 | 96,4 | 0 | 0 | 288 | 0,6 | 998,5 |
| 28 | San Pedro | 05-05-2026 06:45 | 8,5 | 95,6 | 0 | 0 | 170 | 0,6 | 998,8 |
| 27 | San Pedro | 05-05-2026 06:30 | 9,2 | 94,2 | 0 | 0 | 90 | 0,6 | 998,9 |
| 26 | San Pedro | 05-05-2026 06:15 | 8,8 | 95,4 | 0 | 0 | 88 | 0,6 | 999,1 |
| 25 | San Pedro | 05-05-2026 06:00 | 8,8 | 95,7 | 0 | 0 | 90 | 0,6 | 999,1 |
| 24 | San Pedro | 05-05-2026 05:45 | 8,7 | 96,7 | 0 | 0 | 91 | 0,6 | 998,9 |
| 23 | San Pedro | 05-05-2026 05:30 | 8,8 | 96,2 | 0 | 0 | 243 | 0,6 | 998,6 |
| 22 | San Pedro | 05-05-2026 05:15 | 8,3 | 96 | 0 | 0 | 243 | 0,6 | 998,3 |
| 21 | San Pedro | 05-05-2026 05:00 | 8,2 | 95,8 | 0 | 0 | 187 | 0,6 | 997,9 |
| 20 | San Pedro | 05-05-2026 04:45 | 8,2 | 95,7 | 0 | 0 | 128 | 0,6 | 997,7 |
| 19 | San Pedro | 05-05-2026 04:30 | 7,8 | 95,7 | 0 | 0 | 128 | 0,6 | 997,9 |
| 18 | San Pedro | 05-05-2026 04:15 | 7,9 | 96,3 | 0 | 0 | 128 | 0,6 | 998 |
| 17 | San Pedro | 05-05-2026 04:00 | 7,3 | 96,2 | 0 | 0 | 128 | 0,6 | 998,2 |
| 16 | San Pedro | 05-05-2026 03:45 | 7,5 | 95,4 | 0 | 0 | 128 | 0,6 | 998,3 |
| 15 | San Pedro | 05-05-2026 03:30 | 7,6 | 95,2 | 0 | 0 | 128 | 0,6 | 998,3 |
| 14 | San Pedro | 05-05-2026 03:15 | 8,5 | 96,6 | 0 | 0 | 164 | 0,6 | 998,3 |
| 13 | San Pedro | 05-05-2026 03:00 | 7,7 | 96,4 | 0 | 0 | 222 | 0,6 | 998,5 |
| 12 | San Pedro | 05-05-2026 02:45 | 7,5 | 95,9 | 0 | 0 | 223 | 0,6 | 998,5 |
| 11 | San Pedro | 05-05-2026 02:30 | 8,3 | 94,1 | 0 | 0 | 215 | 0,6 | 998,7 |
| 10 | San Pedro | 05-05-2026 02:15 | 8,9 | 92,7 | 0 | 0 | 72 | 0,6 | 998,6 |
| 9 | San Pedro | 05-05-2026 02:00 | 9,1 | 96,9 | 0 | 0 | 72 | 0,6 | 998,6 |
| 8 | San Pedro | 05-05-2026 01:45 | 8,7 | 94,3 | 0 | 0 | 72 | 0,6 | 998,7 |
| 7 | San Pedro | 05-05-2026 01:30 | 9,2 | 93,4 | 0 | 0 | 70 | 0,6 | 998,9 |
| 6 | San Pedro | 05-05-2026 01:15 | 9,9 | 96,3 | 0 | 0 | 70 | 0,6 | 999 |
| 5 | San Pedro | 05-05-2026 01:00 | 9 | 95,7 | 0 | 0 | 70 | 0,6 | 999,1 |
| 4 | San Pedro | 05-05-2026 00:45 | 8,9 | 95,2 | 0 | 0 | 84 | 0,6 | 999 |
| 3 | San Pedro | 05-05-2026 00:30 | 9,3 | 93,2 | 0 | 0 | 93 | 0,6 | 998,9 |
| 2 | San Pedro | 05-05-2026 00:15 | 9,9 | 93,2 | 0 | 0 | 93 | 0,6 | 999,1 |
| 1 | San Pedro | 05-05-2026 00:00 | 9,9 | 92 | 0 | 0 | 93 | 0,6 | 999,3 |